Location: Casilda
(33.0440°S, 61.1680°W)
Time: 21:37:31
(UTC-03:00)

ISS - Pass Details

Date: 19 December 2025
Orbit: 414 x 424 km, 51.6° (Epoch: 13 January)

Event Time Altitude Azimuth Distance (km) Brightness Sun altitude
Rises 22:36:32 0° 210° (SSW) 2,381 1.5 -23.7°
Reaches altitude 10° 22:39:32 10° 181° (S) 1,511 -0.2 -24.1°
Maximum altitude 22:41:16 13° 150° (SSE) 1,323 -1.0 -24.3°
Enters shadow 22:41:27 13° 146° (SE) 1,325 -1.0 -24.3°
